Year,Month,Day,Hour,Minute,Value (Times are PST for temperature in C)
2008,08,04,00,00,14.50
2008,08,04,00,01,14.40
2008,08,04,00,02,14.40
2008,08,04,00,03,14.40
2008,08,04,00,04,14.40
2008,08,04,00,05,14.40
2008,08,04,00,06,14.30
2008,08,04,00,07,14.30
2008,08,04,00,08,14.30
2008,08,04,00,09,14.30
2008,08,04,00,10,14.30
2008,08,04,00,11,14.30
2008,08,04,00,12,14.30
2008,08,04,00,13,14.30
2008,08,04,00,14,14.30
2008,08,04,00,15,14.30
2008,08,04,00,16,14.30
2008,08,04,00,17,14.20
2008,08,04,00,18,14.20
2008,08,04,00,19,14.20
2008,08,04,00,20,14.20
2008,08,04,00,21,14.10
2008,08,04,00,22,14.10
2008,08,04,00,23,14.10
2008,08,04,00,24,14.00
2008,08,04,00,25,14.00
2008,08,04,00,26,13.90
2008,08,04,00,27,13.90
2008,08,04,00,28,13.90
2008,08,04,00,29,13.80
2008,08,04,00,30,13.80
2008,08,04,00,31,13.70
2008,08,04,00,32,13.70
2008,08,04,00,33,13.70
2008,08,04,00,34,13.70
2008,08,04,00,35,13.70
2008,08,04,00,36,13.60
2008,08,04,00,37,13.60
2008,08,04,00,38,13.60
2008,08,04,00,39,13.50
2008,08,04,00,40,13.50
2008,08,04,00,41,13.50
2008,08,04,00,42,13.40
2008,08,04,00,43,13.40
2008,08,04,00,44,13.30
2008,08,04,00,45,13.30
2008,08,04,00,46,13.30
2008,08,04,00,47,13.20
2008,08,04,00,48,13.20
2008,08,04,00,49,13.10
2008,08,04,00,50,13.10
2008,08,04,00,51,13.10
2008,08,04,00,52,13.10
2008,08,04,00,53,13.10
2008,08,04,00,54,13.10
2008,08,04,00,55,13.10
2008,08,04,00,56,13.00
2008,08,04,00,57,13.00
2008,08,04,00,58,13.00
2008,08,04,00,59,13.00
2008,08,04,01,00,13.00
2008,08,04,01,01,13.00
2008,08,04,01,02,13.00
2008,08,04,01,03,13.00
2008,08,04,01,04,13.10
2008,08,04,01,05,13.00
2008,08,04,01,06,13.00
2008,08,04,01,07,13.10
2008,08,04,01,08,13.10
2008,08,04,01,09,13.10
2008,08,04,01,10,13.10
2008,08,04,01,11,13.10
2008,08,04,01,12,13.10
2008,08,04,01,13,13.10
2008,08,04,01,14,13.10
2008,08,04,01,15,13.10
2008,08,04,01,16,13.10
2008,08,04,01,17,13.10
2008,08,04,01,18,13.10
2008,08,04,01,19,13.10
2008,08,04,01,20,13.10
2008,08,04,01,21,13.10
2008,08,04,01,22,13.10
2008,08,04,01,23,13.10
2008,08,04,01,24,13.10
2008,08,04,01,25,13.00
2008,08,04,01,26,13.00
2008,08,04,01,27,13.00
2008,08,04,01,28,13.00
2008,08,04,01,29,13.00
2008,08,04,01,30,13.00
2008,08,04,01,31,13.10
2008,08,04,01,32,13.10
2008,08,04,01,33,13.10
2008,08,04,01,34,13.10
2008,08,04,01,35,13.10
2008,08,04,01,36,13.10
2008,08,04,01,37,13.10
2008,08,04,01,38,13.10
2008,08,04,01,39,13.00
2008,08,04,01,40,13.00
2008,08,04,01,41,12.90
2008,08,04,01,42,12.90
2008,08,04,01,43,12.80
2008,08,04,01,44,12.80
2008,08,04,01,45,12.80
2008,08,04,01,46,12.80
2008,08,04,01,47,12.80
2008,08,04,01,48,12.80
2008,08,04,01,49,12.70
2008,08,04,01,50,12.70
2008,08,04,01,51,12.60
2008,08,04,01,52,12.60
2008,08,04,01,53,12.50
2008,08,04,01,54,12.50
2008,08,04,01,55,12.40
2008,08,04,01,56,12.40
2008,08,04,01,57,12.40
2008,08,04,01,58,12.30
2008,08,04,01,59,12.30
2008,08,04,02,00,12.30
2008,08,04,02,01,12.30
2008,08,04,02,02,12.30
2008,08,04,02,03,12.30
2008,08,04,02,04,12.20
2008,08,04,02,05,12.20
2008,08,04,02,06,12.20
2008,08,04,02,07,12.20
2008,08,04,02,08,12.20
2008,08,04,02,09,12.20
2008,08,04,02,10,12.20
2008,08,04,02,11,12.10
2008,08,04,02,12,12.10
2008,08,04,02,13,12.10
2008,08,04,02,14,12.10
2008,08,04,02,15,12.00
2008,08,04,02,16,12.00
2008,08,04,02,17,11.90
2008,08,04,02,18,11.80
2008,08,04,02,19,11.80
2008,08,04,02,20,11.80
2008,08,04,02,21,11.70
2008,08,04,02,22,11.70
2008,08,04,02,23,11.60
2008,08,04,02,24,11.60
2008,08,04,02,25,11.50
2008,08,04,02,26,11.40
2008,08,04,02,27,11.40
2008,08,04,02,28,11.40
2008,08,04,02,29,11.40
2008,08,04,02,30,11.40
2008,08,04,02,31,11.40
2008,08,04,02,32,11.30
2008,08,04,02,33,11.30
2008,08,04,02,34,11.20
2008,08,04,02,35,11.20
2008,08,04,02,36,11.20
2008,08,04,02,37,11.10
2008,08,04,02,38,11.10
2008,08,04,02,39,11.10
2008,08,04,02,40,11.10
2008,08,04,02,41,11.10
2008,08,04,02,42,11.10
2008,08,04,02,43,11.10
2008,08,04,02,44,11.00
2008,08,04,02,45,10.90
2008,08,04,02,46,10.90
2008,08,04,02,47,10.90
2008,08,04,02,48,10.90
2008,08,04,02,49,10.90
2008,08,04,02,50,10.90
2008,08,04,02,51,10.80
2008,08,04,02,52,10.80
2008,08,04,02,53,10.80
2008,08,04,02,54,10.70
2008,08,04,02,55,10.70
2008,08,04,02,56,10.70
2008,08,04,02,57,10.70
2008,08,04,02,58,10.70
2008,08,04,02,59,10.60
2008,08,04,03,00,10.60
2008,08,04,03,01,10.60
2008,08,04,03,02,10.60
2008,08,04,03,03,10.60
2008,08,04,03,04,10.60
2008,08,04,03,05,10.60
2008,08,04,03,06,10.60
2008,08,04,03,07,10.60
2008,08,04,03,08,10.60
2008,08,04,03,09,10.40
2008,08,04,03,10,10.40
2008,08,04,03,11,10.40
2008,08,04,03,12,10.40
2008,08,04,03,13,10.40
2008,08,04,03,14,10.40
2008,08,04,03,15,10.40
2008,08,04,03,16,10.40
2008,08,04,03,17,10.40
2008,08,04,03,18,10.40
2008,08,04,03,19,10.40
2008,08,04,03,20,10.50
2008,08,04,03,21,10.60
2008,08,04,03,22,10.60
2008,08,04,03,23,10.60
2008,08,04,03,24,10.60
2008,08,04,03,25,10.60
2008,08,04,03,26,10.60
2008,08,04,03,27,10.50
2008,08,04,03,28,10.40
2008,08,04,03,29,10.40
2008,08,04,03,30,10.40
2008,08,04,03,31,10.40
2008,08,04,03,32,10.30
2008,08,04,03,33,10.30
2008,08,04,03,34,10.30
2008,08,04,03,35,10.30
2008,08,04,03,36,10.20
2008,08,04,03,37,10.20
2008,08,04,03,38,10.20
2008,08,04,03,39,10.20
2008,08,04,03,40,10.20
2008,08,04,03,41,10.20
2008,08,04,03,42,10.20
2008,08,04,03,43,10.20
2008,08,04,03,44,10.20
2008,08,04,03,45,10.10
2008,08,04,03,46,10.10
2008,08,04,03,47,10.10
2008,08,04,03,48,10.10
2008,08,04,03,49,10.10
2008,08,04,03,50,10.10
2008,08,04,03,51,10.10
2008,08,04,03,52,10.10
2008,08,04,03,53,10.10
2008,08,04,03,54,10.10
2008,08,04,03,55,10.10
2008,08,04,03,56,10.10
2008,08,04,03,57,10.10
2008,08,04,03,58,10.10
2008,08,04,03,59,10.10
2008,08,04,04,00,10.10
2008,08,04,04,01,10.10
2008,08,04,04,02,10.10
2008,08,04,04,03,10.10
2008,08,04,04,04,10.10
2008,08,04,04,05,10.10
2008,08,04,04,06,10.10
2008,08,04,04,07,10.10
2008,08,04,04,08,10.10
2008,08,04,04,09,9.90
2008,08,04,04,17,10.10
2008,08,04,04,18,10.10
2008,08,04,04,19,10.00
2008,08,04,04,20,9.90
2008,08,04,04,21,9.90
2008,08,04,04,22,9.90
2008,08,04,04,23,9.90
2008,08,04,04,24,9.90
2008,08,04,04,25,9.90
2008,08,04,04,26,9.90
2008,08,04,04,27,9.90
2008,08,04,04,28,9.90
2008,08,04,04,29,9.90
2008,08,04,04,30,9.90
2008,08,04,04,31,9.90
2008,08,04,04,32,9.90
2008,08,04,04,33,9.90
2008,08,04,04,34,9.90
2008,08,04,04,35,9.90
2008,08,04,04,36,9.90
2008,08,04,04,37,9.90
2008,08,04,04,38,9.90
2008,08,04,04,39,9.90
2008,08,04,04,40,9.90
2008,08,04,04,41,9.90
2008,08,04,04,42,9.90
2008,08,04,04,43,9.90
2008,08,04,04,44,9.90
2008,08,04,04,45,9.90
2008,08,04,04,46,9.90
2008,08,04,04,47,9.90
2008,08,04,04,48,9.90
2008,08,04,04,49,9.90
2008,08,04,04,50,9.90
2008,08,04,04,51,9.90
2008,08,04,04,52,9.90
2008,08,04,04,53,9.90
2008,08,04,04,54,9.90
2008,08,04,04,55,9.90
2008,08,04,04,56,9.90
2008,08,04,04,57,9.90
2008,08,04,04,58,9.90
2008,08,04,04,59,9.90
2008,08,04,05,00,9.90
2008,08,04,05,01,9.90
2008,08,04,05,02,9.90
2008,08,04,05,03,9.90
2008,08,04,05,04,9.90
2008,08,04,05,05,9.90
2008,08,04,05,06,9.90
2008,08,04,05,07,9.90
2008,08,04,05,08,10.00
2008,08,04,05,09,10.10
2008,08,04,05,10,10.10
2008,08,04,05,11,10.10
2008,08,04,05,12,10.10
2008,08,04,05,13,10.10
2008,08,04,05,14,10.10
2008,08,04,05,15,10.10
2008,08,04,05,16,10.10
2008,08,04,05,17,10.10
2008,08,04,05,18,10.10
2008,08,04,05,19,10.20
2008,08,04,05,20,10.20
2008,08,04,05,21,10.20
2008,08,04,05,22,10.20
2008,08,04,05,23,10.20
2008,08,04,05,24,10.30
2008,08,04,05,25,10.30
2008,08,04,05,26,10.30
2008,08,04,05,27,10.30
2008,08,04,05,28,10.30
2008,08,04,05,29,10.40
2008,08,04,05,30,10.40
2008,08,04,05,31,10.40
2008,08,04,05,32,10.40
2008,08,04,05,33,10.40
2008,08,04,05,34,10.40
2008,08,04,05,35,10.40
2008,08,04,05,36,10.40
2008,08,04,05,37,10.40
2008,08,04,05,38,10.40
2008,08,04,05,39,10.40
2008,08,04,05,40,10.40
2008,08,04,05,41,10.50
2008,08,04,05,42,10.60
2008,08,04,05,43,10.60
2008,08,04,05,44,10.60
2008,08,04,05,45,10.60
2008,08,04,05,46,10.60
2008,08,04,05,47,10.60
2008,08,04,05,48,10.60
2008,08,04,05,49,10.60
2008,08,04,05,50,10.60
2008,08,04,05,51,10.60
2008,08,04,05,52,10.70
2008,08,04,05,53,10.70
2008,08,04,05,54,10.70
2008,08,04,05,55,10.80
2008,08,04,05,56,10.80
2008,08,04,05,57,10.80
2008,08,04,05,58,10.80
2008,08,04,05,59,10.90
2008,08,04,06,00,10.90
2008,08,04,06,01,11.00
2008,08,04,06,02,11.10
2008,08,04,06,03,11.10
2008,08,04,06,04,11.10
2008,08,04,06,05,11.20
2008,08,04,06,06,11.30
2008,08,04,06,07,11.40
2008,08,04,06,08,11.40
2008,08,04,06,09,11.50
2008,08,04,06,10,11.60
2008,08,04,06,11,11.60
2008,08,04,06,12,11.60
2008,08,04,06,13,11.70
2008,08,04,06,14,11.70
2008,08,04,06,15,11.70
2008,08,04,06,16,11.70
2008,08,04,06,17,11.70
2008,08,04,06,18,11.70
2008,08,04,06,19,11.70
2008,08,04,06,20,11.70
2008,08,04,06,21,11.70
2008,08,04,06,22,11.70
2008,08,04,06,23,11.80
2008,08,04,06,24,11.80
2008,08,04,06,25,11.80
2008,08,04,06,26,11.90
2008,08,04,06,27,11.90
2008,08,04,06,28,12.00
2008,08,04,06,29,12.00
2008,08,04,06,30,12.00
2008,08,04,06,31,12.10
2008,08,04,06,32,12.00
2008,08,04,06,33,12.10
2008,08,04,06,34,12.10
2008,08,04,06,35,12.10
2008,08,04,06,36,12.10
2008,08,04,06,37,12.10
2008,08,04,06,38,12.10
2008,08,04,06,39,12.10
2008,08,04,06,40,12.10
2008,08,04,06,41,12.10
2008,08,04,06,42,12.10
2008,08,04,06,43,12.10
2008,08,04,06,44,12.20
2008,08,04,06,45,12.20
2008,08,04,06,46,12.30
2008,08,04,06,47,12.30
2008,08,04,06,48,12.30
2008,08,04,06,49,12.30
2008,08,04,06,50,12.40
2008,08,04,06,51,12.40
2008,08,04,06,52,12.50
2008,08,04,06,53,12.50
2008,08,04,06,54,12.60
2008,08,04,06,55,12.60
2008,08,04,06,56,12.70
2008,08,04,06,57,12.70
2008,08,04,06,58,12.80
2008,08,04,06,59,12.80
2008,08,04,07,00,12.80
2008,08,04,07,01,12.90
2008,08,04,07,02,12.90
2008,08,04,07,03,13.00
2008,08,04,07,04,13.10
2008,08,04,07,05,13.20
2008,08,04,07,06,13.30
2008,08,04,07,07,13.40
2008,08,04,07,08,13.50
2008,08,04,07,09,13.60
2008,08,04,07,10,13.70
2008,08,04,07,11,13.70
2008,08,04,07,12,13.70
2008,08,04,07,13,13.70
2008,08,04,07,14,13.70
2008,08,04,07,15,13.70
2008,08,04,07,16,13.70
2008,08,04,07,17,13.70
2008,08,04,07,18,13.70
2008,08,04,07,19,13.70
2008,08,04,07,20,13.80
2008,08,04,07,21,13.80
2008,08,04,07,22,13.90
2008,08,04,07,23,13.90
2008,08,04,07,24,14.00
2008,08,04,07,25,14.00
2008,08,04,07,26,14.10
2008,08,04,07,27,14.20
2008,08,04,07,28,14.20
2008,08,04,07,29,14.20
2008,08,04,07,30,14.30
2008,08,04,07,31,14.40
2008,08,04,07,32,14.40
2008,08,04,07,33,14.40
2008,08,04,07,34,14.50
2008,08,04,07,35,14.50
2008,08,04,07,36,14.50
2008,08,04,07,37,14.50
2008,08,04,07,38,14.50
2008,08,04,07,39,14.60
2008,08,04,07,40,14.60
2008,08,04,07,41,14.70
2008,08,04,07,42,14.70
2008,08,04,07,43,14.80
2008,08,04,07,44,14.80
2008,08,04,07,45,14.80
2008,08,04,07,46,14.80
2008,08,04,07,47,14.80
2008,08,04,07,48,14.90
2008,08,04,07,49,14.90
2008,08,04,07,50,15.00
2008,08,04,07,51,15.10
2008,08,04,07,52,15.10
2008,08,04,07,53,15.10
2008,08,04,07,54,15.20
2008,08,04,07,55,15.20
2008,08,04,07,56,15.20
2008,08,04,07,57,15.30
2008,08,04,07,58,15.30
2008,08,04,07,59,15.40
2008,08,04,08,00,15.50
2008,08,04,08,01,15.60
2008,08,04,08,02,15.60
2008,08,04,08,03,15.70
2008,08,04,08,04,15.80
2008,08,04,08,05,15.80
2008,08,04,08,06,15.90
2008,08,04,08,07,16.10
2008,08,04,08,08,16.10
2008,08,04,08,09,16.20
2008,08,04,08,10,16.20
2008,08,04,08,11,16.30
2008,08,04,08,12,16.30
2008,08,04,08,13,16.40
2008,08,04,08,14,16.40
2008,08,04,08,15,16.40
2008,08,04,08,16,16.40
2008,08,04,08,17,16.40
2008,08,04,08,18,16.40
2008,08,04,08,19,16.40
2008,08,04,08,20,16.40
2008,08,04,08,21,16.40
2008,08,04,08,22,16.40
2008,08,04,08,23,16.50
2008,08,04,08,24,16.60
2008,08,04,08,25,16.60
2008,08,04,08,26,16.70
2008,08,04,08,27,16.70
2008,08,04,08,28,16.70
2008,08,04,08,29,16.70
2008,08,04,08,30,16.70
2008,08,04,08,31,16.80
2008,08,04,08,32,16.80
2008,08,04,08,33,16.80
2008,08,04,08,34,16.90
2008,08,04,08,35,16.90
2008,08,04,08,36,16.90
2008,08,04,08,37,16.90
2008,08,04,08,38,16.90
2008,08,04,08,39,16.90
2008,08,04,08,40,16.90
2008,08,04,08,41,17.00
2008,08,04,08,42,17.00
2008,08,04,08,43,17.00
2008,08,04,08,44,17.00
2008,08,04,08,45,17.00
2008,08,04,08,46,17.10
2008,08,04,08,47,17.10
2008,08,04,08,48,17.10
2008,08,04,08,49,17.10
2008,08,04,08,50,17.10
2008,08,04,08,51,17.10
2008,08,04,08,52,17.20
2008,08,04,08,53,17.20
2008,08,04,08,54,17.30
2008,08,04,08,55,17.30
2008,08,04,08,56,17.30
2008,08,04,08,57,17.30
2008,08,04,08,58,17.30
2008,08,04,08,59,17.30
2008,08,04,09,00,17.30
2008,08,04,09,01,17.40
2008,08,04,09,02,17.30
2008,08,04,09,03,17.30
2008,08,04,09,04,17.30
2008,08,04,09,05,17.30
2008,08,04,09,06,17.30
2008,08,04,09,07,17.30
2008,08,04,09,08,17.30
2008,08,04,09,09,17.30
2008,08,04,09,10,17.30
2008,08,04,09,11,17.30
2008,08,04,09,12,17.30
2008,08,04,09,13,17.30
2008,08,04,09,14,17.30
2008,08,04,09,15,17.30
2008,08,04,09,16,17.30
2008,08,04,09,17,17.30
2008,08,04,09,18,17.30
2008,08,04,09,19,17.30
2008,08,04,09,20,17.30
2008,08,04,09,21,17.40
2008,08,04,09,22,17.40
2008,08,04,09,23,17.40
2008,08,04,09,24,17.50
2008,08,04,09,25,17.50
2008,08,04,09,26,17.50
2008,08,04,09,27,17.50
2008,08,04,09,28,17.50
2008,08,04,09,29,17.60
2008,08,04,09,30,17.60
2008,08,04,09,31,17.70
2008,08,04,09,32,17.70
2008,08,04,09,33,17.80
2008,08,04,09,34,17.80
2008,08,04,09,35,17.80
2008,08,04,09,36,17.80
2008,08,04,09,37,17.80
2008,08,04,09,38,17.80
2008,08,04,09,39,17.80
2008,08,04,09,40,17.80
2008,08,04,09,41,17.80
2008,08,04,09,42,17.80
2008,08,04,09,43,17.70
2008,08,04,09,44,17.70
2008,08,04,09,45,17.70
2008,08,04,09,46,17.70
2008,08,04,09,47,17.70
2008,08,04,09,48,17.80
2008,08,04,09,49,17.80
2008,08,04,09,50,17.90
2008,08,04,09,51,18.00
2008,08,04,09,52,18.10
2008,08,04,09,53,18.20
2008,08,04,09,54,18.20
2008,08,04,09,55,18.30
2008,08,04,09,56,18.30
2008,08,04,09,57,18.30
2008,08,04,09,58,18.40
2008,08,04,09,59,18.40
2008,08,04,10,00,18.50
2008,08,04,10,01,18.50
2008,08,04,10,02,18.60
2008,08,04,10,03,18.70
2008,08,04,10,04,18.70
2008,08,04,10,05,18.70
2008,08,04,10,06,18.80
2008,08,04,10,07,18.80
2008,08,04,10,08,18.80
2008,08,04,10,09,18.80
2008,08,04,10,10,18.80
2008,08,04,10,11,18.80
2008,08,04,10,12,18.80
2008,08,04,10,13,18.80
2008,08,04,10,14,18.80
2008,08,04,10,15,18.90
2008,08,04,10,16,18.90
2008,08,04,10,17,18.90
2008,08,04,10,18,18.90
2008,08,04,10,19,18.90
2008,08,04,10,20,18.80
2008,08,04,10,21,18.80
2008,08,04,10,22,18.70
2008,08,04,10,23,18.60
2008,08,04,10,24,18.60
2008,08,04,10,25,18.50
2008,08,04,10,26,18.50
2008,08,04,10,27,18.50
2008,08,04,10,28,18.50
2008,08,04,10,29,18.40
2008,08,04,10,30,18.40
2008,08,04,10,31,18.30
2008,08,04,10,32,18.40
2008,08,04,10,33,18.40
2008,08,04,10,34,18.40
2008,08,04,10,35,18.50
2008,08,04,10,36,18.50
2008,08,04,10,37,18.50
2008,08,04,10,38,18.50
2008,08,04,10,39,18.50
2008,08,04,10,40,18.50
2008,08,04,10,41,18.50
2008,08,04,10,42,18.50
2008,08,04,10,43,18.40
2008,08,04,10,44,18.40
2008,08,04,10,45,18.40
2008,08,04,10,46,18.40
2008,08,04,10,47,18.50
2008,08,04,10,48,18.50
2008,08,04,10,49,18.60
2008,08,04,10,50,18.70
2008,08,04,10,51,18.70
2008,08,04,10,52,18.80
2008,08,04,10,53,18.80
2008,08,04,10,54,18.80
2008,08,04,10,55,18.80
2008,08,04,10,56,18.80
2008,08,04,10,57,18.80
2008,08,04,10,58,18.80
2008,08,04,10,59,18.80
2008,08,04,11,00,18.70
2008,08,04,11,01,18.70
2008,08,04,11,02,18.70
2008,08,04,11,03,18.80
2008,08,04,11,04,18.80
2008,08,04,11,05,18.80
2008,08,04,11,06,18.80
2008,08,04,11,07,18.80
2008,08,04,11,08,18.80
2008,08,04,11,09,18.90
2008,08,04,11,10,18.90
2008,08,04,11,11,18.90
2008,08,04,11,12,19.00
2008,08,04,11,13,19.10
2008,08,04,11,14,19.10
2008,08,04,11,15,19.20
2008,08,04,11,16,19.20
2008,08,04,11,17,19.20
2008,08,04,11,18,19.10
2008,08,04,11,19,19.20
2008,08,04,11,20,19.20
2008,08,04,11,21,19.20
2008,08,04,11,22,19.20
2008,08,04,11,23,19.20
2008,08,04,11,24,19.20
2008,08,04,11,25,19.20
2008,08,04,11,26,19.20
2008,08,04,11,27,19.30
2008,08,04,11,28,19.40
2008,08,04,11,29,19.40
2008,08,04,11,30,19.50
2008,08,04,11,31,19.40
2008,08,04,11,32,19.40
2008,08,04,11,33,19.40
2008,08,04,11,34,19.40
2008,08,04,11,35,19.40
2008,08,04,11,36,19.40
2008,08,04,11,37,19.50
2008,08,04,11,38,19.40
2008,08,04,11,39,19.40
2008,08,04,11,40,19.40
2008,08,04,11,41,19.40
2008,08,04,11,42,19.40
2008,08,04,11,43,19.50
2008,08,04,11,44,19.50
2008,08,04,11,45,19.50
2008,08,04,11,46,19.50
2008,08,04,11,47,19.50
2008,08,04,11,48,19.60
2008,08,04,11,49,19.60
2008,08,04,11,50,19.70
2008,08,04,11,51,19.70
2008,08,04,11,52,19.80
2008,08,04,11,53,19.80
2008,08,04,11,54,19.80
2008,08,04,11,55,19.70
2008,08,04,11,56,19.70
2008,08,04,11,57,19.70
2008,08,04,11,58,19.70
2008,08,04,11,59,19.70
2008,08,04,12,00,19.70
2008,08,04,12,01,19.70
2008,08,04,12,02,19.70
2008,08,04,12,03,19.80
2008,08,04,12,04,19.90
2008,08,04,12,05,19.90
2008,08,04,12,06,19.90
2008,08,04,12,07,19.90
2008,08,04,12,08,19.90
2008,08,04,12,09,19.90
2008,08,04,12,10,19.90
2008,08,04,12,11,19.90
2008,08,04,12,12,19.90
2008,08,04,12,13,19.80
2008,08,04,12,14,19.90
2008,08,04,12,15,19.90
2008,08,04,12,16,19.90
2008,08,04,12,17,20.00
2008,08,04,12,18,20.10
2008,08,04,12,19,20.10
2008,08,04,12,20,20.20
2008,08,04,12,21,20.10
2008,08,04,12,22,20.00
2008,08,04,12,23,20.10
2008,08,04,12,24,20.10
2008,08,04,12,25,20.20
2008,08,04,12,26,20.20
2008,08,04,12,27,20.20
2008,08,04,12,28,20.20
2008,08,04,12,29,20.20
2008,08,04,12,30,20.20
2008,08,04,12,31,20.20
2008,08,04,12,32,20.20
2008,08,04,12,33,20.20
2008,08,04,12,34,20.20
2008,08,04,12,35,20.20
2008,08,04,12,36,20.30
2008,08,04,12,37,20.30
2008,08,04,12,38,20.20
2008,08,04,12,39,20.20
2008,08,04,12,40,20.20
2008,08,04,12,41,20.20
2008,08,04,12,42,20.20
2008,08,04,12,43,20.20
2008,08,04,12,44,20.20
2008,08,04,12,45,20.20
2008,08,04,12,46,20.20
2008,08,04,12,47,20.20
2008,08,04,12,48,20.30
2008,08,04,12,49,20.40
2008,08,04,12,50,20.40
2008,08,04,12,51,20.40
2008,08,04,12,52,20.40
2008,08,04,12,53,20.40
2008,08,04,12,54,20.40
2008,08,04,12,55,20.40
2008,08,04,12,56,20.40
2008,08,04,12,57,20.50
2008,08,04,12,58,20.50
2008,08,04,12,59,20.50
2008,08,04,13,00,20.50
2008,08,04,13,01,20.60
2008,08,04,13,02,20.60
2008,08,04,13,03,20.60
2008,08,04,13,04,20.60
2008,08,04,13,05,20.60
2008,08,04,13,06,20.60
2008,08,04,13,07,20.60
2008,08,04,13,08,20.60
2008,08,04,13,09,20.60
2008,08,04,13,10,20.60
2008,08,04,13,11,20.60
2008,08,04,13,12,20.70
2008,08,04,13,13,20.70
2008,08,04,13,14,20.80
2008,08,04,13,15,20.80
2008,08,04,13,16,20.80
2008,08,04,13,17,20.80
2008,08,04,13,18,20.70
2008,08,04,13,19,20.60
2008,08,04,13,20,20.60
2008,08,04,13,21,20.70
2008,08,04,13,22,20.70
2008,08,04,13,23,20.60
2008,08,04,13,24,20.50
2008,08,04,13,25,20.50
2008,08,04,13,26,20.60
2008,08,04,13,27,20.70
2008,08,04,13,28,20.70
2008,08,04,13,29,20.80
2008,08,04,13,30,20.90
2008,08,04,13,31,20.90
2008,08,04,13,32,20.90
2008,08,04,13,33,21.00
2008,08,04,13,34,21.10
2008,08,04,13,35,21.10
2008,08,04,13,36,21.20
2008,08,04,13,37,21.30
2008,08,04,13,38,21.30
2008,08,04,13,39,21.30
2008,08,04,13,40,21.30
2008,08,04,13,41,21.30
2008,08,04,13,42,21.30
2008,08,04,13,43,21.30
2008,08,04,13,44,21.30
2008,08,04,13,45,21.30
2008,08,04,13,46,21.20
2008,08,04,13,47,21.30
2008,08,04,13,48,21.30
2008,08,04,13,49,21.30
2008,08,04,13,50,21.30
2008,08,04,13,51,21.30
2008,08,04,13,52,21.30
2008,08,04,13,53,21.30
2008,08,04,13,54,21.30
2008,08,04,13,55,21.30
2008,08,04,13,56,21.30
2008,08,04,13,57,21.30
2008,08,04,13,58,21.50
2008,08,04,13,59,21.60
2008,08,04,14,00,21.60
2008,08,04,14,01,21.70
2008,08,04,14,02,21.70
2008,08,04,14,03,21.70
2008,08,04,14,04,21.70
2008,08,04,14,05,21.70
2008,08,04,14,06,21.70
2008,08,04,14,07,21.80
2008,08,04,14,08,21.90
2008,08,04,14,09,21.90
2008,08,04,14,10,22.00
2008,08,04,14,11,22.00
2008,08,04,14,12,22.10
2008,08,04,14,13,22.20
2008,08,04,14,14,22.20
2008,08,04,14,15,22.10
2008,08,04,14,16,22.10
2008,08,04,14,17,22.20
2008,08,04,14,18,22.10
2008,08,04,14,19,22.10
2008,08,04,14,20,22.20
2008,08,04,14,21,22.20
2008,08,04,14,22,22.30
2008,08,04,14,23,22.30
2008,08,04,14,24,22.30
2008,08,04,14,25,22.40
2008,08,04,14,26,22.40
2008,08,04,14,27,22.50
2008,08,04,14,28,22.60
2008,08,04,14,29,22.70
2008,08,04,14,30,22.70
2008,08,04,14,31,22.80
2008,08,04,14,32,22.80
2008,08,04,14,33,22.70
2008,08,04,14,34,22.60
2008,08,04,14,35,22.60
2008,08,04,14,36,22.60
2008,08,04,14,37,22.60
2008,08,04,14,38,22.60
2008,08,04,14,39,22.60
2008,08,04,14,40,22.60
2008,08,04,14,41,22.50
2008,08,04,14,42,22.60
2008,08,04,14,43,22.50
2008,08,04,14,44,22.50
2008,08,04,14,45,22.50
2008,08,04,14,46,22.60
2008,08,04,14,47,22.60
2008,08,04,14,48,22.60
2008,08,04,14,49,22.70
2008,08,04,14,50,22.70
2008,08,04,14,51,22.50
2008,08,04,14,52,22.50
2008,08,04,14,53,22.40
2008,08,04,14,54,22.30
2008,08,04,14,55,22.30
2008,08,04,14,56,22.30
2008,08,04,14,57,22.30
2008,08,04,14,58,22.30
2008,08,04,14,59,22.30
2008,08,04,15,00,22.30
2008,08,04,15,01,22.30
2008,08,04,15,02,22.30
2008,08,04,15,03,22.40
2008,08,04,15,04,22.40
2008,08,04,15,05,22.40
2008,08,04,15,06,22.40
2008,08,04,15,07,22.40
2008,08,04,15,08,22.40
2008,08,04,15,09,22.40
2008,08,04,15,10,22.50
2008,08,04,15,11,22.60
2008,08,04,15,12,22.60
2008,08,04,15,13,22.60
2008,08,04,15,14,22.60
2008,08,04,15,15,22.60
2008,08,04,15,16,22.60
2008,08,04,15,17,22.50
2008,08,04,15,18,22.50
2008,08,04,15,19,22.40
2008,08,04,15,20,22.40
2008,08,04,15,21,22.30
2008,08,04,15,22,22.20
2008,08,04,15,23,22.20
2008,08,04,15,24,22.20
2008,08,04,15,25,22.30
2008,08,04,15,26,22.20
2008,08,04,15,27,22.20
2008,08,04,15,28,22.20
2008,08,04,15,29,22.20
2008,08,04,15,30,22.20
2008,08,04,15,31,22.10
2008,08,04,15,32,22.10
2008,08,04,15,33,22.00
2008,08,04,15,34,22.00
2008,08,04,15,35,22.00
2008,08,04,15,36,22.00
2008,08,04,15,37,22.00
2008,08,04,15,38,22.10
2008,08,04,15,39,22.10
2008,08,04,15,40,22.20
2008,08,04,15,41,22.20
2008,08,04,15,42,22.30
2008,08,04,15,43,22.40
2008,08,04,15,44,22.40
2008,08,04,15,45,22.40
2008,08,04,15,46,22.50
2008,08,04,15,47,22.40
2008,08,04,15,48,22.50
2008,08,04,15,49,22.50
2008,08,04,15,50,22.50
2008,08,04,15,51,22.60
2008,08,04,15,52,22.60
2008,08,04,15,53,22.70
2008,08,04,15,54,22.80
2008,08,04,15,55,22.90
2008,08,04,15,56,22.90
2008,08,04,15,57,22.90
2008,08,04,15,58,22.90
2008,08,04,15,59,22.90
2008,08,04,16,00,22.90
2008,08,04,16,01,22.90
2008,08,04,16,02,22.90
2008,08,04,16,03,22.90
2008,08,04,16,04,22.80
2008,08,04,16,05,22.80
2008,08,04,16,06,22.80
2008,08,04,16,07,22.80
2008,08,04,16,08,22.80
2008,08,04,16,09,22.80
2008,08,04,16,10,22.80
2008,08,04,16,11,22.80
2008,08,04,16,12,22.90
2008,08,04,16,13,22.90
2008,08,04,16,14,22.90
2008,08,04,16,15,22.90
2008,08,04,16,16,22.90
2008,08,04,16,17,22.90
2008,08,04,16,18,23.00
2008,08,04,16,19,23.10
2008,08,04,16,20,23.20
2008,08,04,16,21,23.20
2008,08,04,16,22,23.30
2008,08,04,16,23,23.30
2008,08,04,16,24,23.30
2008,08,04,16,25,23.30
2008,08,04,16,26,23.30
2008,08,04,16,27,23.40
2008,08,04,16,28,23.40
2008,08,04,16,29,23.40
2008,08,04,16,30,23.40
2008,08,04,16,31,23.40
2008,08,04,16,32,23.40
2008,08,04,16,33,23.30
2008,08,04,16,34,23.30
2008,08,04,16,35,23.30
2008,08,04,16,36,23.30
2008,08,04,16,37,23.30
2008,08,04,16,38,23.30
2008,08,04,16,39,23.20
2008,08,04,16,40,23.20
2008,08,04,16,41,23.20
2008,08,04,16,42,23.20
2008,08,04,16,43,23.00
2008,08,04,16,44,22.90
2008,08,04,16,45,22.90
2008,08,04,16,46,22.90
2008,08,04,16,47,22.90
2008,08,04,16,48,22.90
2008,08,04,16,49,22.90
2008,08,04,16,50,22.90
2008,08,04,16,51,22.90
2008,08,04,16,52,22.80
2008,08,04,16,53,22.70
2008,08,04,16,54,22.60
2008,08,04,16,55,22.50
2008,08,04,16,56,22.50
2008,08,04,16,57,22.40
2008,08,04,16,58,22.40
2008,08,04,16,59,22.30
2008,08,04,17,00,22.30
2008,08,04,17,01,22.30
2008,08,04,17,02,22.30
2008,08,04,17,03,22.40
2008,08,04,17,04,22.40
2008,08,04,17,05,22.40
2008,08,04,17,06,22.40
2008,08,04,17,07,22.40
2008,08,04,17,08,22.40
2008,08,04,17,09,22.40
2008,08,04,17,10,22.30
2008,08,04,17,11,22.30
2008,08,04,17,12,22.30
2008,08,04,17,13,22.30
2008,08,04,17,14,22.30
2008,08,04,17,15,22.40
2008,08,04,17,16,22.40
2008,08,04,17,17,22.50
2008,08,04,17,18,22.50
2008,08,04,17,19,22.60
2008,08,04,17,20,22.70
2008,08,04,17,21,22.80
2008,08,04,17,22,22.80
2008,08,04,17,23,22.90
2008,08,04,17,24,22.90
2008,08,04,17,25,22.90
2008,08,04,17,26,23.00
2008,08,04,17,27,23.20
2008,08,04,17,28,23.20